Location: Pic du Midi - T1M
(42.9366°N, 0.1426°E)
Time: 00:12:31
(UTC+01:00)

DX 1 - Pass Details

Date: 28 September 2021
Orbit: 618 x 631 km, 98.4° (Epoch: 15 October)

Event Time Altitude Azimuth Distance (km) Brightness Sun altitude
Rises 21:58:15 0° 0° (N) 2,898 ? -34.3°
Reaches altitude 10° 22:00:46 10° 347° (NNW) 1,989 ? -34.7°
Enters shadow 22:02:42 19° 324° (NW) 1,465 ? -35.0°
